Flag for United Kingdom Weather past 2 weeks in Bristol, England, United Kingdom

Now
50 °F

Passing clouds.


Feels Like: 48 °F
Forecast: 49 / 60 °F
Wind: 6 mph from West

Location: Bristol / Lulsgate

Current Time: Sep 4, 2015 at 5:10:47 AM

Latest Report: Sep 4, 2015 at 4:20 AM


Visibility: N/A

Pressure: 30.07 "Hg

Humidity: 88%

Dew point: 46 °F

Location of BristolLocation

Historic Weather in Bristol — Graph

°F

Bristol temperature yesterday

Maximum temperature yesterday: 57 °F (at 1:20 PM)
Minimum temperature yesterday: 46 °F (at 12:50 AM)
Average temperature yesterday: 53 °F

Past Weeks' High & Low Weather Summary

 TemperatureHumidityPressure
High77 °F (Aug 22, 3:50 PM)100% (Aug 20, 5:20 AM)30.12 "Hg (Aug 20, 5:20 AM)
Low46 °F (Sep 2, 4:50 AM)60% (Aug 26, 5:20 PM)29.50 "Hg (Aug 24, 5:20 AM)
Average58 °F86%29.91 "Hg
* Reported Aug 20 3:20 AM — Sep 4 3:50 AM, Bristol, Weather by CustomWeather, © 2015

Note: Actual official high and low records may vary slightly from our data, if they occured in-between our weather recording intervals... More about our weather records

Advertising

Bristol weather history for previous 24 hours

 ConditionsComfort  
Time TempWeatherWind HumidityBarometerVisibility
3:50 AM
Fri, Sep 4
52 °FPassing clouds.3 mph77%30.07 "HgN/A
3:20 AM50 °FClear.5 mph82%30.07 "Hg10 mi
2:50 AM50 °FClear.6 mph82%30.07 "Hg10 mi
2:20 AM50 °FClear.3 mph82%30.07 "Hg10 mi
1:50 AM50 °FClear.5 mph88%30.07 "Hg10 mi
1:20 AM52 °FPassing clouds.5 mph82%30.07 "HgN/A
12:50 AM50 °FClear.5 mph88%30.07 "Hg10 mi
12:20 AM50 °FClear.5 mph88%30.07 "Hg10 mi
11:50 PM
Thu, Sep 3
50 °FPassing clouds.5 mph88%30.07 "HgN/A
11:20 PM52 °FPassing clouds.2 mph82%30.07 "HgN/A
10:20 PM52 °FClear.2 mph82%30.07 "Hg10 mi
9:50 PM52 °FPassing clouds.6 mph77%30.07 "HgN/A
9:20 PM52 °FPassing clouds.5 mph82%30.07 "HgN/A
8:50 PM54 °FPassing clouds.6 mph82%30.04 "HgN/A
8:20 PM54 °FScattered clouds.5 mph82%30.04 "HgN/A
7:50 PM54 °FScattered clouds.3 mph82%30.04 "HgN/A
7:20 PM54 °FPassing clouds.5 mph82%30.04 "HgN/A
6:50 PM55 °FScattered showers. Passing clouds.5 mph72%30.04 "HgN/A
6:20 PM55 °FScattered showers. Scattered clouds.5 mph72%30.04 "HgN/A
5:50 PM55 °FScattered clouds.5 mph72%30.04 "HgN/A
5:20 PM55 °FScattered clouds.8 mph72%30.01 "HgN/A
4:50 PM57 °FScattered clouds.9 mph67%30.01 "HgN/A
4:20 PM55 °FScattered clouds.9 mph72%30.01 "HgN/A
3:50 PM57 °FScattered clouds.10 mph63%30.01 "HgN/A
3:20 PM57 °FScattered clouds.10 mph67%30.01 "HgN/A
2:50 PM55 °FScattered clouds.12 mph72%30.01 "HgN/A
2:20 PM55 °FScattered clouds.12 mph72%30.01 "HgN/A
1:50 PM57 °FPassing clouds.13 mph67%30.01 "HgN/A
1:20 PM57 °FPassing clouds.13 mph67%30.01 "HgN/A
12:50 PM54 °FScattered clouds.8 mph82%30.01 "HgN/A
12:20 PM55 °FBroken clouds.9 mph77%30.01 "HgN/A
11:50 AM55 °FScattered clouds.10 mph77%30.01 "HgN/A
11:20 AM54 °FScattered clouds.10 mph82%30.04 "HgN/A
10:50 AM54 °FBroken clouds.12 mph82%30.04 "HgN/A
10:20 AM54 °FScattered clouds.12 mph82%30.04 "HgN/A
9:50 AM54 °FScattered clouds.9 mph77%30.04 "HgN/A
9:20 AM55 °FScattered clouds.9 mph77%30.04 "HgN/A
8:50 AM52 °FScattered clouds.6 mph82%30.04 "HgN/A
8:20 AM50 °FScattered clouds.7 mph88%30.04 "HgN/A
7:50 AM50 °FPassing clouds.9 mph88%30.04 "HgN/A
7:20 AM50 °FPassing clouds.8 mph88%30.04 "HgN/A
6:50 AM50 °FPassing clouds.9 mph88%30.04 "HgN/A
6:20 AM50 °FPassing clouds.9 mph88%30.04 "HgN/A
5:50 AM50 °FPassing clouds.7 mph88%30.04 "HgN/A
5:20 AM50 °FPassing clouds.5 mph88%30.04 "HgN/A
Weather by CustomWeather, © 2015

See weather overviewHow to use our weather pages